Terug naar catalogus

SL-14 DEB

ActiefPO
NORAD 25227·DEBRIS·🇷🇺 Russia

Gelanceerd Aug 18, 1987 vanaf Plesetsk Cosmodrome

Loading…

Volgende Passages (komende 24 uur)

TLE

VersSource: Space-Track

Epoch: Sep 13, 2026, 20:31 UTC

1 25227U 87068BE  26256.85515528  .00007260  00000-0  16904-2 0  9994
2 25227  82.5179 200.0244 0014856  26.0546 334.1398 14.54688780469844

Volg SL-14 DEB in realtime met AllMySat

Download on the App Store